Location: Mount Lemmon
(32.4432°N, 110.7577°W)
Time: 19:11:40
(UTC-07:00)

Tiangong 1 - Visible Passes

Search period start: 23 February 2018 00:00
Search period end: 05 March 2018 00:00
Orbit: 246 x 267 km, 42.8° (Epoch: 23 February)

Date Brightness Start Highest point End Pass type
(mag) Time Alt. Az. Time Alt. Az. Time Alt. Az.
27 Feb 2.8 18:41:23 10° SSE 18:41:47 10° SE 18:42:11 10° SE visible
28 Feb 3.9 20:05:39 10° W 20:06:00 13° W 20:06:00 13° W visible
01 Mar 3.5 19:57:58 10° WNW 19:58:41 14° NW 19:58:41 14° NW visible
02 Mar 3.3 19:50:12 10° NW 19:51:02 13° NNW 19:51:02 13° NNW visible
03 Mar 3.3 19:42:34 10° NNW 19:42:56 10° NNW 19:43:04 10° N visible
